{"data":{"norad_id":67810,"epoch":"2026-05-24T23:30:57.769056Z","epoch_age_seconds":73976,"freshness":"FRESH","line1":"1 67810U 26032P   26144.97983529  .00023486  00000+0  72740-3 0  9999","line2":"2 67810  97.2861 333.0970 0001181  96.4966 263.6411 15.33451512 16654","mean_motion":15.33451512,"eccentricity":0.0001181,"inclination_deg":97.2861,"raan_deg":333.097,"arg_perigee_deg":96.4966,"mean_anomaly_deg":263.6411,"bstar":0.0007274,"rev_number":1665,"period_min":93.905805872002,"perigee_km":464.71556307587,"apogee_km":466.33203575669,"semimajor_km":6843.6607994163,"source":"CELESTRAK","updated_at":"2026-05-25T13:38:21.694598Z"}}